Location: Castillon
(43.0896°N, 0.2156°E)
Time: 19:03:48
(UTC+00:00)

Cosmos 389 Rocket - Pass Details

Date: 16 June 2021
Orbit: 440 x 471 km, 81.1° (Epoch: 01 August)

Event Time Altitude Azimuth Distance (km) Brightness Sun altitude
Rises 21:58:25 0° 6° (N) 2,443 7.0 -17.9°
Reaches altitude 10° 22:01:01 10° 28° (NNE) 1,570 5.6 -18.1°
Maximum altitude 22:03:21 17° 71° (ENE) 1,203 4.5 -18.3°
Enters shadow 22:03:36 17° 77° (ENE) 1,208 4.4 -18.3°
